ANZ417 NZAA-NZWN

Flight info

Callsign ANZ417
Flight time 0h 48m
Altitude 34000
Route IGBAT Y506 TPAPA
Aircraft A320/M-SDE3FGHIRWY/LB1

Departure

Time 2026-05-04 23:04
Airport Auckland International Airport (NZAA)

Arrival

Time 2026-05-04 23:52
Airport Wellington International Airport (NZWN)
Time Latitude Longitude Altitude Speed Heading
2026-05-04 22:36 -37.00701 174.79146 26 ft 0 kts 342°
2026-05-04 22:53 -37.00713 174.79151 27 ft 4 kts 340°
2026-05-04 22:53 -37.00737 174.79163 29 ft 4 kts 329°
2026-05-04 22:54 -37.00757 174.79183 25 ft 4 kts 300°
2026-05-04 22:54 -37.00762 174.79209 25 ft 1 kts 251°
2026-05-04 22:54 -37.00761 174.79214 25 ft 0 kts 251°
2026-05-04 22:58 -37.00763 174.79205 25 ft 0 kts 251°
2026-05-04 22:59 -37.00775 174.79163 27 ft 8 kts 251°
2026-05-04 22:59 -37.00815 174.79109 26 ft 10 kts 185°
2026-05-04 22:59 -37.00863 174.79165 29 ft 11 kts 87°
2026-05-04 22:59 -37.00833 174.79270 25 ft 14 kts 70°
2026-05-04 23:00 -37.00798 174.79396 25 ft 17 kts 71°
2026-05-04 23:00 -37.00757 174.79548 25 ft 19 kts 71°
2026-05-04 23:00 -37.00711 174.79716 28 ft 22 kts 71°
2026-05-04 23:00 -37.00658 174.79905 28 ft 24 kts 70°
2026-05-04 23:01 -37.00601 174.80110 25 ft 26 kts 71°
2026-05-04 23:01 -37.00544 174.80317 28 ft 18 kts 72°
2026-05-04 23:01 -37.00503 174.80464 28 ft 14 kts 70°
2026-05-04 23:01 -37.00489 174.80571 28 ft 10 kts 108°
2026-05-04 23:02 -37.00553 174.80608 25 ft 13 kts 192°
2026-05-04 23:02 -37.00638 174.80552 28 ft 15 kts 208°
2026-05-04 23:02 -37.00696 174.80468 25 ft 14 kts 252°
2026-05-04 23:02 -37.00702 174.80446 28 ft 2 kts 251°
2026-05-04 23:03 -37.00716 174.80396 27 ft 20 kts 251°
2026-05-04 23:03 -37.00849 174.79916 25 ft 93 kts 251°
2026-05-04 23:03 -37.01124 174.78920 29 ft 146 kts 251°
2026-05-04 23:03 -37.01481 174.77584 300 ft 166 kts 252°
2026-05-04 23:04 -37.01851 174.76204 935 ft 169 kts 251°
2026-05-04 23:04 -37.02225 174.74823 1595 ft 169 kts 250°
2026-05-04 23:04 -37.02624 174.73383 2065 ft 185 kts 250°
2026-05-04 23:04 -37.03075 174.71769 2373 ft 206 kts 250°
2026-05-04 23:05 -37.03575 174.69976 2658 ft 231 kts 251°
2026-05-04 23:05 -37.04130 174.67981 3064 ft 255 kts 251°
2026-05-04 23:05 -37.04830 174.65876 3731 ft 268 kts 237°
2026-05-04 23:05 -37.06214 174.64309 4597 ft 274 kts 205°
2026-05-04 23:06 -37.08031 174.63559 5500 ft 277 kts 195°
2026-05-04 23:06 -37.09908 174.62920 6391 ft 282 kts 194°
2026-05-04 23:06 -37.11816 174.62281 7252 ft 286 kts 194°
2026-05-04 23:06 -37.13755 174.61635 8099 ft 290 kts 194°
2026-05-04 23:07 -37.15723 174.60970 8930 ft 295 kts 194°
2026-05-04 23:07 -37.17718 174.60289 9740 ft 299 kts 194°
2026-05-04 23:07 -37.19747 174.59597 10384 ft 310 kts 189°
2026-05-04 23:07 -37.21910 174.58898 10643 ft 332 kts 196°
2026-05-04 23:08 -37.24219 174.58188 10887 ft 351 kts 198°
2026-05-04 23:08 -37.25355 174.57871 11007 ft 359 kts 188°
2026-05-04 23:09 -37.26016 174.57715 11067 ft 364 kts 185°
2026-05-04 23:09 -37.28613 174.57418 10972 ft 389 kts 181°
2026-05-04 23:10 -37.31400 174.57085 10738 ft 415 kts 183°
2026-05-04 23:10 -37.34267 174.56649 10422 ft 409 kts 185°
2026-05-04 23:10 -37.37052 174.56087 10286 ft 401 kts 189°
2026-05-04 23:10 -37.39700 174.55460 11043 ft 382 kts 190°
2026-05-04 23:11 -37.42246 174.54855 11862 ft 366 kts 189°
2026-05-04 23:11 -37.44769 174.54293 12344 ft 364 kts 189°
2026-05-04 23:11 -37.47267 174.53782 13084 ft 365 kts 188°
2026-05-04 23:11 -37.49750 174.53301 13760 ft 367 kts 188°
2026-05-04 23:12 -37.52286 174.52826 14405 ft 370 kts 188°
2026-05-04 23:12 -37.54855 174.52467 15016 ft 374 kts 181°
2026-05-04 23:12 -37.57462 174.52406 15627 ft 377 kts 180°
2026-05-04 23:12 -37.60096 174.52339 16227 ft 380 kts 180°
2026-05-04 23:13 -37.62750 174.52262 16808 ft 383 kts 181°
2026-05-04 23:13 -37.65423 174.52177 17368 ft 386 kts 181°
2026-05-04 23:13 -37.68120 174.52096 17919 ft 389 kts 181°
2026-05-04 23:13 -37.70839 174.52010 18485 ft 392 kts 181°
2026-05-04 23:14 -37.73574 174.51926 19028 ft 395 kts 181°
2026-05-04 23:14 -37.76337 174.51845 19573 ft 399 kts 181°
2026-05-04 23:14 -37.79125 174.51764 20102 ft 402 kts 181°
2026-05-04 23:14 -37.81937 174.51683 20649 ft 405 kts 181°
2026-05-04 23:15 -37.84767 174.51603 21162 ft 408 kts 181°
2026-05-04 23:15 -37.87582 174.51525 21652 ft 411 kts 181°
2026-05-04 23:15 -37.90455 174.51445 22116 ft 414 kts 181°
2026-05-04 23:15 -37.93348 174.51361 22560 ft 417 kts 181°
2026-05-04 23:16 -37.96261 174.51268 22981 ft 421 kts 181°
2026-05-04 23:16 -37.99193 174.51113 23413 ft 424 kts 184°
2026-05-04 23:16 -38.02143 174.50799 23842 ft 426 kts 186°
2026-05-04 23:16 -38.05095 174.50371 24288 ft 428 kts 187°
2026-05-04 23:17 -38.08058 174.49892 24715 ft 431 kts 187°
2026-05-04 23:17 -38.11044 174.49405 25114 ft 434 kts 187°
2026-05-04 23:17 -38.14044 174.48933 25502 ft 436 kts 187°
2026-05-04 23:17 -38.17077 174.48480 25882 ft 439 kts 187°
2026-05-04 23:18 -38.20121 174.48049 26254 ft 441 kts 187°
2026-05-04 23:18 -38.23181 174.47633 26620 ft 444 kts 187°
2026-05-04 23:18 -38.26264 174.47220 26978 ft 446 kts 187°
2026-05-04 23:18 -38.29360 174.46806 27329 ft 449 kts 187°
2026-05-04 23:19 -38.32475 174.46386 27676 ft 452 kts 187°
2026-05-04 23:19 -38.35609 174.45955 28023 ft 454 kts 187°
2026-05-04 23:19 -38.38758 174.45511 28371 ft 456 kts 188°
2026-05-04 23:19 -38.41928 174.45060 28717 ft 459 kts 188°
2026-05-04 23:20 -38.45067 174.44617 29042 ft 461 kts 188°
2026-05-04 23:20 -38.48266 174.44170 29381 ft 463 kts 188°
2026-05-04 23:20 -38.51479 174.43721 29702 ft 465 kts 188°
2026-05-04 23:20 -38.54709 174.43271 30020 ft 468 kts 188°
2026-05-04 23:21 -38.57944 174.42817 30446 ft 467 kts 188°
2026-05-04 23:21 -38.61168 174.42363 30922 ft 465 kts 188°
2026-05-04 23:21 -38.64376 174.41913 31418 ft 463 kts 188°
2026-05-04 23:21 -38.67565 174.41465 31893 ft 460 kts 187°
2026-05-04 23:22 -38.70743 174.41021 32365 ft 458 kts 187°
2026-05-04 23:22 -38.73907 174.40579 32831 ft 456 kts 187°
2026-05-04 23:22 -38.77052 174.40139 33306 ft 454 kts 187°
2026-05-04 23:22 -38.80184 174.39697 33767 ft 452 kts 187°
2026-05-04 23:23 -38.83300 174.39252 34219 ft 450 kts 187°
2026-05-04 23:23 -38.86411 174.38806 34480 ft 450 kts 187°
2026-05-04 23:23 -38.92657 174.37920 34539 ft 453 kts 187°
2026-05-04 23:24 -38.98916 174.37035 34540 ft 453 kts 187°
2026-05-04 23:24 -39.05185 174.36155 34541 ft 453 kts 185°
2026-05-04 23:25 -39.11489 174.36308 34548 ft 454 kts 178°
2026-05-04 23:25 -39.17747 174.36669 34548 ft 453 kts 178°
2026-05-04 23:26 -39.24050 174.37026 34551 ft 453 kts 178°
2026-05-04 23:26 -39.30354 174.37383 34554 ft 453 kts 178°
2026-05-04 23:27 -39.35595 174.37685 34558 ft 453 kts 178°
2026-05-04 23:27 -39.41894 174.38050 34559 ft 453 kts 178°
2026-05-04 23:28 -39.48194 174.38414 34563 ft 453 kts 178°
2026-05-04 23:28 -39.54489 174.38778 34575 ft 452 kts 177°
2026-05-04 23:29 -39.60776 174.39148 34576 ft 452 kts 178°
2026-05-04 23:29 -39.67059 174.39506 34582 ft 452 kts 177°
2026-05-04 23:30 -39.73345 174.39872 34576 ft 451 kts 177°
2026-05-04 23:30 -39.79611 174.40240 34569 ft 451 kts 177°
2026-05-04 23:31 -39.85870 174.40612 34567 ft 450 kts 177°
2026-05-04 23:31 -39.92138 174.40973 34568 ft 450 kts 177°
2026-05-04 23:32 -39.98399 174.41343 34572 ft 450 kts 177°
2026-05-04 23:32 -40.04655 174.41718 33907 ft 453 kts 177°
2026-05-04 23:33 -40.07844 174.41908 32686 ft 465 kts 177°
2026-05-04 23:33 -40.11116 174.42102 31563 ft 474 kts 177°
2026-05-04 23:33 -40.14410 174.42299 30784 ft 473 kts 177°
2026-05-04 23:33 -40.17676 174.42493 30211 ft 467 kts 176°
2026-05-04 23:34 -40.20862 174.42679 29575 ft 463 kts 176°
2026-05-04 23:34 -40.24067 174.42867 28943 ft 458 kts 176°
2026-05-04 23:34 -40.27237 174.43050 28310 ft 454 kts 177°
2026-05-04 23:34 -40.30377 174.43233 27687 ft 449 kts 177°
2026-05-04 23:35 -40.33489 174.43416 27069 ft 445 kts 177°
2026-05-04 23:35 -40.36569 174.43597 26458 ft 441 kts 177°
2026-05-04 23:35 -40.39620 174.43780 25856 ft 436 kts 177°
2026-05-04 23:35 -40.42635 174.43963 25256 ft 432 kts 176°
2026-05-04 23:36 -40.45623 174.44143 24679 ft 427 kts 177°
2026-05-04 23:36 -40.48580 174.44323 24109 ft 422 kts 177°
2026-05-04 23:36 -40.51499 174.44495 23562 ft 418 kts 177°
2026-05-04 23:36 -40.54384 174.44661 23036 ft 413 kts 177°
2026-05-04 23:37 -40.57243 174.44826 22526 ft 408 kts 177°
2026-05-04 23:37 -40.60064 174.44996 22025 ft 404 kts 177°
2026-05-04 23:37 -40.62858 174.45168 21539 ft 400 kts 177°
2026-05-04 23:37 -40.65629 174.45334 21048 ft 396 kts 177°
2026-05-04 23:38 -40.68372 174.45501 20545 ft 393 kts 177°
2026-05-04 23:38 -40.71056 174.45685 20048 ft 390 kts 175°
2026-05-04 23:38 -40.73744 174.46019 19541 ft 386 kts 173°
2026-05-04 23:38 -40.76397 174.46475 19032 ft 383 kts 171°
2026-05-04 23:39 -40.79018 174.46991 18515 ft 379 kts 171°
2026-05-04 23:39 -40.81611 174.47516 18004 ft 375 kts 171°
2026-05-04 23:39 -40.84185 174.48025 17475 ft 373 kts 171°
2026-05-04 23:39 -40.86746 174.48511 16951 ft 370 kts 172°
2026-05-04 23:40 -40.89289 174.48977 16428 ft 367 kts 172°
2026-05-04 23:40 -40.91819 174.49428 15896 ft 366 kts 172°
2026-05-04 23:40 -40.94329 174.49868 15374 ft 363 kts 172°
2026-05-04 23:40 -40.96826 174.50302 14834 ft 361 kts 172°
2026-05-04 23:41 -40.99314 174.50735 13906 ft 370 kts 172°
2026-05-04 23:41 -41.01848 174.51179 13548 ft 361 kts 172°
2026-05-04 23:41 -41.04244 174.51603 13412 ft 334 kts 172°
2026-05-04 23:41 -41.06469 174.52000 13234 ft 313 kts 172°
2026-05-04 23:42 -41.08591 174.52386 12760 ft 304 kts 172°
2026-05-04 23:42 -41.10671 174.52809 12182 ft 300 kts 171°
2026-05-04 23:42 -41.12721 174.53251 11582 ft 297 kts 171°
2026-05-04 23:42 -41.14755 174.53699 10978 ft 295 kts 171°
2026-05-04 23:43 -41.16770 174.54146 10513 ft 290 kts 171°
2026-05-04 23:43 -41.18777 174.54584 10397 ft 292 kts 171°
2026-05-04 23:43 -41.20772 174.55016 10270 ft 290 kts 171°
2026-05-04 23:43 -41.22758 174.55446 10140 ft 289 kts 171°
2026-05-04 23:44 -41.24744 174.55879 10019 ft 289 kts 171°
2026-05-04 23:44 -41.26749 174.56312 9515 ft 297 kts 171°
2026-05-04 23:44 -41.28769 174.56756 9322 ft 290 kts 169°
2026-05-04 23:44 -41.30672 174.57564 9061 ft 286 kts 156°
2026-05-04 23:45 -41.32489 174.58626 8721 ft 283 kts 156°
2026-05-04 23:45 -41.34288 174.59673 8157 ft 281 kts 156°
2026-05-04 23:45 -41.36077 174.60711 7588 ft 280 kts 156°
2026-05-04 23:45 -41.37854 174.61737 7025 ft 278 kts 156°
2026-05-04 23:46 -41.39606 174.62748 6842 ft 276 kts 156°
2026-05-04 23:46 -41.41382 174.63776 6540 ft 281 kts 156°
2026-05-04 23:46 -41.43147 174.64803 5967 ft 279 kts 156°
2026-05-04 23:46 -41.44908 174.65831 5450 ft 274 kts 156°
2026-05-04 23:47 -41.46642 174.66851 4950 ft 273 kts 156°
2026-05-04 23:47 -41.48259 174.68230 4441 ft 280 kts 133°
2026-05-04 23:47 -41.49310 174.70400 3901 ft 279 kts 106°
2026-05-04 23:47 -41.49605 174.72888 3435 ft 265 kts 88°
2026-05-04 23:48 -41.49686 174.75240 3374 ft 243 kts 88°
2026-05-04 23:48 -41.49661 174.77377 3302 ft 217 kts 69°
2026-05-04 23:48 -41.48957 174.78959 3204 ft 187 kts 34°
2026-05-04 23:48 -41.47851 174.79656 2953 ft 172 kts
2026-05-04 23:49 -41.46682 174.79743 2681 ft 166 kts 356°
2026-05-04 23:49 -41.45545 174.79819 2426 ft 162 kts 355°
2026-05-04 23:49 -41.44411 174.79893 2188 ft 164 kts 355°
2026-05-04 23:49 -41.43268 174.79968 1941 ft 166 kts 359°
2026-05-04 23:50 -41.42108 174.80045 1746 ft 168 kts
2026-05-04 23:50 -41.40954 174.80126 1545 ft 165 kts
2026-05-04 23:50 -41.39836 174.80202 1339 ft 151 kts
2026-05-04 23:50 -41.38857 174.80265 1121 ft 134 kts
2026-05-04 23:51 -41.37942 174.80327 937 ft 133 kts
2026-05-04 23:51 -41.37023 174.80408 772 ft 131 kts
2026-05-04 23:51 -41.36112 174.80474 648 ft 131 kts
2026-05-04 23:51 -41.35199 174.80542 456 ft 131 kts
2026-05-04 23:52 -41.34290 174.80587 242 ft 130 kts
2026-05-04 23:52 -41.33384 174.80643 37 ft 130 kts
2026-05-04 23:52 -41.32669 174.80692 26 ft 63 kts
2026-05-04 23:52 -41.32423 174.80707 34 ft 19 kts
2026-05-04 23:53 -41.32298 174.80716 39 ft 17 kts
2026-05-04 23:53 -41.32189 174.80731 43 ft 13 kts 30°
2026-05-04 23:53 -41.32176 174.80830 44 ft 10 kts 124°
2026-05-04 23:53 -41.32260 174.80848 41 ft 15 kts 186°
2026-05-04 23:54 -41.32382 174.80838 36 ft 20 kts 183°
2026-05-04 23:54 -41.32542 174.80831 30 ft 26 kts 183°
2026-05-04 23:54 -41.32697 174.80820 26 ft 19 kts 182°
2026-05-04 23:54 -41.32812 174.80821 26 ft 14 kts 156°
2026-05-04 23:55 -41.32866 174.80883 26 ft 10 kts 170°
2026-05-04 23:55 -41.32912 174.80920 26 ft 9 kts 101°
2026-05-04 23:55 -41.32965 174.80965 26 ft 4 kts 159°
2026-05-04 23:56 -41.32979 174.80972 26 ft 1 kts 159°
2026-05-04 23:56 -41.32983 174.80974 26 ft 0 kts 159°